Location: ????
(33.1659°N, 35.6604°E)
Time: 23:02:44
(UTC+00:00)

ISS - Pass Details

Date: 20 September 2019
Orbit: 411 x 421 km, 51.6° (Epoch: 17 October)

Event Time Altitude Azimuth Distance (km) Brightness Sun altitude
Rises 17:49:20 0° 276° (W) 2,335 1.2 -27.8°
Reaches altitude 10° 17:52:53 10° 317° (NW) 1,476 -0.2 -28.5°
Maximum altitude 17:53:45 11° 332° (NNW) 1,432 -0.5 -28.6°
Enters shadow 17:54:01 11° 337° (NNW) 1,436 -0.5 -28.7°
